Location: Jalan Sepang
(2.8072°N, 101.8021°E)
Time: 04:50:41
(UTC+00:00)

Cosmos 1459 Rocket - Pass Details

Date: 15 May 2026
Orbit: 935 x 999 km, 83.0° (Epoch: 7 June)

Event Time Altitude Azimuth Distance (km) Brightness Sun altitude
Rises 12:21:14 0° 177° (S) 3,709 6.8 -16.0°
Reaches altitude 10° 12:23:47 10° 174° (S) 2,754 6.1 -16.6°
Maximum altitude 12:30:03 66° 93° (E) 1,065 3.9 -18.1°
Drops below altitude 10° 12:36:12 10° 12° (NNE) 2,708 6.4 -19.5°
Sets 12:38:42 0° 9° (N) 3,643 7.2 -20.1°
